Location: Newark
(43.4306°N, 0.3089°E)
Time: 08:06:48
(UTC+00:00)

S-56A Canister/Altair - All Passes

Search period start: 19 August 2019 00:00
Search period end: 29 August 2019 00:00
Orbit: 633 x 2499 km, 38.9° (Epoch: 18 August)

Date Brightness Start Highest point End Pass type
(mag) Time Alt. Az. Time Alt. Az. Time Alt. Az.
19 Aug - 00:19:20 10° WSW 00:23:49 53° S 00:29:37 10° ESE visible
19 Aug - 02:22:23 10° W 02:27:22 39° SSW 02:34:18 10° SE visible
19 Aug - 04:26:51 10° WSW 04:31:12 17° SSW 04:36:34 10° S visible
19 Aug - 21:44:25 10° SW 21:48:15 27° SSE 21:52:10 10° E visible
19 Aug - 23:46:57 10° WSW 23:51:19 51° S 23:56:39 10° ESE night (unlit)
20 Aug - 01:50:01 10° W 01:54:44 40° SSW 02:01:12 10° SE visible
20 Aug - 03:54:12 10° WSW 03:58:27 18° SSW 04:03:45 10° SSE visible
20 Aug - 21:12:03 10° SSW 21:15:47 24° SSE 21:19:26 10° ESE visible
20 Aug - 23:14:32 10° WSW 23:18:49 49° S 23:23:47 10° E night (unlit)
21 Aug - 01:17:37 10° W 01:22:09 41° SSW 01:28:09 10° SE visible
21 Aug - 03:21:37 10° WSW 03:25:44 19° SSW 03:30:56 10° SSE visible
21 Aug - 20:39:37 10° SSW 20:43:19 22° SSE 20:46:46 10° ESE visible
21 Aug - 22:42:05 10° WSW 22:46:20 47° S 22:51:00 10° E night (unlit)
22 Aug - 00:45:14 10° W 00:49:37 42° SSW 00:55:11 10° ESE night (unlit)
22 Aug - 02:49:05 10° WSW 02:53:05 20° SSW 02:58:06 10° SSE visible
22 Aug - 20:07:11 10° SSW 20:10:50 20° SSE 20:14:07 10° ESE visible
22 Aug - 22:09:34 10° WSW 22:13:52 45° S 22:18:17 10° E visible
23 Aug - 00:12:49 10° W 00:17:06 43° S 00:22:18 10° ESE night (unlit)
23 Aug - 02:16:34 10° WSW 02:20:28 21° SSW 02:25:18 10° SSE visible
23 Aug - 19:34:42 10° SSW 19:38:19 18° SSE 19:41:30 10° ESE visible
23 Aug - 21:37:00 10° WSW 21:41:24 42° S 21:45:40 10° E visible
23 Aug - 23:40:22 10° W 23:44:36 45° S 23:49:29 10° ESE night (unlit)
24 Aug - 01:44:04 10° WSW 01:47:52 22° SSW 01:52:33 10° SSE night (unlit)
24 Aug - 19:02:11 10° SSW 19:05:46 17° SSE 19:08:53 10° ESE daylight
24 Aug - 21:04:23 10° WSW 21:08:56 40° SSE 21:13:05 10° E visible
24 Aug - 23:07:52 10° W 23:12:07 46° S 23:16:45 10° ESE night (unlit)
25 Aug - 01:11:34 10° WSW 01:15:19 23° SSW 01:19:50 10° SSE night (unlit)
25 Aug - 18:29:39 10° S 18:33:12 16° SSE 18:36:15 10° ESE daylight
25 Aug - 20:31:40 10° SW 20:36:28 38° SSE 20:40:35 10° E visible
25 Aug - 22:35:18 10° W 22:39:39 47° S 22:44:06 10° ESE visible
26 Aug - 00:39:03 10° WSW 00:42:47 25° SSW 00:47:09 10° SSE night (unlit)
26 Aug - 17:57:07 10° S 18:00:36 15° SSE 18:03:36 10° ESE daylight
26 Aug - 19:58:54 10° SW 20:03:58 36° SSE 20:08:07 10° E visible
26 Aug - 22:02:41 10° WSW 22:07:10 48° S 22:11:31 10° ESE visible
27 Aug - 00:06:31 10° WSW 00:10:17 27° SSW 00:14:32 10° SE night (unlit)
27 Aug - 17:24:34 10° S 17:27:58 14° SSE 17:30:54 10° ESE daylight
27 Aug - 19:26:04 10° SW 19:31:26 35° SSE 19:35:41 10° E visible
27 Aug - 21:29:58 10° WSW 21:34:42 49° S 21:38:59 10° ESE visible
27 Aug - 23:33:57 10° W 23:37:48 29° SSW 23:41:58 10° SE night (unlit)
28 Aug - 16:52:03 10° S 16:55:19 13° SSE 16:58:08 10° ESE daylight
28 Aug - 18:53:09 10° SW 18:58:53 33° SSE 19:03:16 10° E daylight
28 Aug - 20:57:11 10° WSW 21:02:13 50° S 21:06:31 10° ESE visible
28 Aug - 23:01:20 10° W 23:05:21 32° SSW 23:09:27 10° SE visible
